Content
SEND FEEDBACK

Daily
Averages
Monthly
Summary
United Kingdom

SLOUGH, ENGLAND


Home > Europe > United Kingdom > England
Elevation: 79 feet     Latitude: 51 29N     Longitude: 000 27W

WEATHER
 
SELECT A DAY
Number of Records: 354,212;   Date Range: 7/1/96 - 12/12/14
 
SHARE

PRINT THIS DATA

[ ← Previous Day ]
WEATHER ALMANAC - OCTOBER 18, 2013
[ Next Day → ]
[ °C ]   °F
Weather ElementAverageHighLow
Temperature57.4 °F64.4 °F (2:50 pm)51 °F (6:50 am)
Dewpoint54.2 °F57.2 °F (11:50 am)50 °F (6:50 am)
Humidity89 %100 % (12:50 am)70 % (3:50 pm)
Barometer29.94 in30.04 in (1:50 am)29.80 in (9:50 pm)
Wind Speed8 mph15 mph (7:50 pm)
Weather ElementAverage
Visibility6.3 mi
Wind DirectionESE (122.6 °)

Weather ElementTotal
Precipitation---
Heating Degree Days7.3 (Base 65)
Growing Degree Days7.7 (Base 50)
Averaged from 54 records on October 18, 2013
WEATHER CONDITIONS BREAKOUT
WIND DIRECTION BREAKOUT
WEATHER BY HOUR - OCTOBER 18, 2013
[ °C ]   °F
Local TimeTemperatureDewpointHumidityBarometerVisibilityWind DirectionWind SpeedGust SpeedPrecipitationEventsConditions
12:50 AM53.0 °F52.0 °F94 %30.02 in4.0 miEast (90°)1.2 mphMist
12:50 AM53.6 °F53.6 °F100 %30.01 in4.3 miCalmMostly Cloudy
1:20 AM53.6 °F53.6 °F100 %30.01 in3.7 miVariable3.5 mphOvercast
1:50 AM55.4 °F53.6 °F94 %30.04 in3.1 miVariable3.5 mphMostly Cloudy
2:20 AM55.4 °F53.6 °F94 %30.04 in3.1 miWest (260°)4.6 mphMostly Cloudy
2:50 AM55.4 °F53.6 °F94 %30.04 in3.7 miWest (260°)3.5 mphOvercast
3:20 AM55.4 °F55.4 °F100 %30.01 in5.0 miSW (230°)5.8 mphOvercast
3:50 AM55.4 °F53.6 °F94 %30.01 in5.0 miWest (280°)3.5 mphMostly Cloudy
3:50 AM55.0 °F54.0 °F93 %30.02 in9.0 miWest (270°)2.3 mphOvercast
4:20 AM55.4 °F53.6 °F94 %30.01 in5.0 miSSE (160°)3.5 mphMostly Cloudy
4:50 AM55.4 °F53.6 °F94 %30.01 in4.3 miEast (100°)3.5 mphMostly Cloudy
5:50 AM53.6 °F51.8 °F94 %30.01 in4.3 miESE (110°)4.6 mphPartly Cloudy
6:20 AM53.6 °F53.6 °F100 %30.01 in4.3 miCalm
6:50 AM53.6 °F51.8 °F94 %30.01 in5.0 miEast (90°)4.6 mphPartly Cloudy
6:50 AM51.0 °F50.0 °F97 %30.00 in5.0 miEast (90°)3.5 mphMist
7:20 AM51.8 °F51.8 °F100 %30.01 in4.3 miENE (60°)2.3 mph
7:50 AM53.6 °F53.6 °F100 %29.98 in5.0 miEast (80°)3.5 mphFogShallow Fog
8:20 AM53.6 °F53.6 °F100 %30.01 in3.7 miEast (80°)3.5 mphFogFog
8:50 AM55.4 °F53.6 °F94 %30.01 in3.7 miEast (100°)3.5 mph
9:20 AM55.4 °F53.6 °F94 %30.01 in3.7 miEast (100°)4.6 mph
9:50 AM55.4 °F53.6 °F94 %30.01 in4.3 miESE (110°)5.8 mphPartly Cloudy
9:50 AM55.0 °F53.0 °F90 %30.00 in9.0 miESE (110°)5.8 mphScattered Clouds
10:20 AM57.2 °F55.4 °F94 %29.98 in5.6 miEast (90°)5.8 mphScattered Clouds
10:50 AM57.2 °F55.4 °F94 %29.98 in6.2 miESE (110°)5.8 mphScattered Clouds
11:20 AM57.2 °F55.4 °F94 %29.98 in6.2 miSE (140°)6.9 mphMostly Cloudy
11:50 AM59.0 °F57.2 °F94 %29.98 in6.2 miSE (130°)9.2 mphMostly Cloudy
12:20 PM60.8 °F57.2 °F88 %29.98 in6.2 miSE (140°)9.2 mphMostly Cloudy
12:50 PM60.8 °F57.2 °F88 %29.98 in6.2 miSE (140°)9.2 mphMostly Cloudy
12:50 PM61.0 °F56.0 °F79 %29.97 in12.0 miSE (130°)11.5 mphPartly Cloudy
1:20 PM60.8 °F57.2 °F88 %29.95 in6.2 miSE (130°)10.4 mphScattered Clouds
1:50 PM62.6 °F57.2 °F82 %29.95 in6.2 miSE (130°)10.4 mphPartly Cloudy
2:20 PM62.6 °F57.2 °F82 %29.92 in6.2 miSE (140°)11.5 mphPartly Cloudy
2:50 PM64.4 °F57.2 °F77 %29.92 in6.2 miSE (140°)12.7 mphScattered Clouds
3:20 PM62.6 °F55.4 °F77 %29.92 in6.2 miSE (130°)10.4 mphScattered Clouds
3:50 PM62.6 °F55.4 °F77 %29.92 in6.2 miSE (130°)10.4 mphScattered Clouds
3:50 PM62.0 °F55.0 °F70 %29.91 in19.0 miSE (130°)12.7 mphScattered Clouds
4:20 PM62.6 °F55.4 °F77 %29.89 in6.2 miESE (120°)11.5 mphScattered Clouds
4:50 PM62.6 °F55.4 °F77 %29.89 in6.2 miSE (130°)12.7 mphScattered Clouds
5:20 PM60.8 °F53.6 °F77 %29.89 in6.2 miESE (120°)10.4 mphPartly Cloudy
5:50 PM60.8 °F53.6 °F77 %29.86 in6.2 miESE (110°)9.2 mphPartly Cloudy
6:20 PM59.0 °F55.4 °F88 %29.86 in6.2 miESE (110°)13.8 mphPartly Cloudy
6:50 PM59.0 °F53.6 °F82 %29.86 in6.2 miESE (120°)13.8 mphPartly Cloudy
6:50 PM58.0 °F53.0 °F77 %29.86 in16.0 miESE (110°)13.8 mphRainRain
7:20 PM57.2 °F53.6 °F88 %29.83 in6.2 miEast (100°)13.8 mphScattered Clouds
7:50 PM57.2 °F53.6 °F88 %29.83 in6.2 miESE (120°)15.0 mphScattered Clouds
8:20 PM57.2 °F53.6 °F88 %29.83 in6.2 miSE (130°)11.5 mphScattered Clouds
8:50 PM57.2 °F53.6 °F88 %29.83 in6.2 miSE (130°)12.7 mphScattered Clouds
9:20 PM57.2 °F53.6 °F88 %29.83 in6.2 miSE (130°)13.8 mphMostly Cloudy
9:50 PM57.2 °F53.6 °F88 %29.80 in6.2 miSE (130°)12.7 mphMostly Cloudy
9:50 PM57.0 °F52.0 °F78 %29.82 in17.0 miSE (130°)15.0 mphPartly Cloudy
10:20 PM57.2 °F53.6 °F88 %29.80 in6.2 miSE (140°)12.7 mphMostly Cloudy
10:50 PM57.2 °F53.6 °F88 %29.80 in6.2 miSE (140°)9.2 mphMostly Cloudy
11:20 PM57.2 °F53.6 °F88 %29.80 in6.2 miSE (130°)9.2 mphMostly Cloudy
11:50 PM57.2 °F53.6 °F88 %29.80 in6.2 miSE (130°)10.4 mphMostly Cloudy
Hourly data recorded from EGLL, located miles away from Slough, England







STORIES FROM OUR PARTNERS